Regional Weather Roundup
Issued by NWS Bismarck, ND

Home | Current Version | Previous Version | Text Only | Print | Product List | Glossary On
Versions: 1 2 3 4 5 6 7 8 9 10 11 12 13 14 15 16 17 18 19 20 21 22 23 24 25 26 27 28 29 30 31 32 33 34 35 36 37 38 39 40 41 42 43 44 45 46 47 48 49 50
601
ASUS43 KBIS 231302
RWRBIS

NWR BROADCAST TEXT
NATIONAL WEATHER SERVICE BISMARCK ND
800 AM CDT MON OCT 23 2017

NOTE: "FAIR" INDICATES FEW OR NO CLOUDS BELOW 12,000 FEET WITH NO
SIGNIFICANT WEATHER AND/OR OBSTRUCTIONS TO VISIBILITY.


CITY           SKY/WX    TMP DP  RH WIND       PRES   REMARKS
WILLISTON      CLEAR     41  34  75 NW9       30.08R
MINOT          CLOUDY    43  37  79 W16       29.97R
MINOT AFB      CLOUDY    41  37  83 NW17G23   29.96R
BISMARCK       CLOUDY    49  36  61 NW25G33   30.00R
DICKINSON      CLEAR     42  32  67 W20       30.06R
GARRISON         N/A     42  37  82 NW18G35   30.00R
HETTINGER ARPT CLEAR     42  30  62 NW21G29   30.10R
JAMESTOWN      CLOUDY    45  36  70 NW28G37   29.87R
CARRINGTON     CLOUDY    43  39  87 NW24G32   29.91R
LINTON           N/A     48  32  53 NW24G35   29.98R
TIOGA          FAIR      37  36  93 W17       30.05R
$$

CITY           SKY/WX    TMP DP  RH WIND       PRES   REMARKS
GRAND FORKS    CLOUDY    48  40  73 NW24G39   29.76R
GRAND FORKS AF NOT AVBL
DEVILS LAKE    CLOUDY    41  38  89 NW18      29.88R
FARGO          PTCLDY    46  38  73 W21G29    29.78R
CANDO          CLOUDY    41  41 100 NW12      29.91R
CAVALIER       PTSUNNY   45  41  87 NW21G28   29.79R
GWINNER          N/A     46  36  66 W24G32    29.85R
ROLLA          FAIR      39  37  93 NW20      29.89R
WALHALLA       FAIR     N/A N/A N/A NW25      29.81R
$$

CITY           SKY/WX    TMP DP  RH WIND       PRES   REMARKS
ABERDEEN       PTCLDY    48  39  71 W14       29.92R
MOBRIDGE       CLEAR     49  38  65 NW28G37   29.97R
BUFFALO          N/A     44  28  53 NW21      30.11R
RAPID CITY     CLEAR     48  21  34 NW30G45   30.20R
GLASGOW        CLEAR     34  27  75 NW7       30.18R
SIDNEY         CLEAR     43  33  68 W22G29    30.11R
WOLF POINT     PTCLDY    38  31  76 W6        30.17R
GLENDIVE       CLEAR     43  28  55 NW20      30.17R
MILES CITY     CLEAR     42  28  57 W16       30.23R
BAKER          MOCLDY    41  30  65 W13       30.18R
$$

CITY           SKY/WX    TMP DP  RH WIND       PRES   REMARKS
BILLINGS       CLEAR     45  25  45 NW16G25   30.35R
GREAT FALLS    CLEAR     40  25  55 SW16      30.34R
$$





USA.gov is the U.S. government's official web portal to all federal, state and local government web resources and services.